Change the Weather History Date:

Tuesday, April 29, 2014

  Actual Average Record
Temperature  
Mean Temperature 60 °F 65 °F  
Max Temperature 68 °F 77 °F 93 °F (1962)
Min Temperature 51 °F 54 °F 34 °F (1965)
Degree Days  
Heating Degree Days 5 2  
Month to date heating degree days 132 153  
Since 1 July heating degree days 3536 3212  
Cooling Degree Days 0 3  
Month to date cooling degree days 51 52  
Year to date cooling degree days 51 64  
Growing Degree Days 10 (Base 50)    
Moisture  
Dew Point 41 °F    
Average Humidity 59    
Maximum Humidity 83    
Minimum Humidity 34    
Precipitation  
Precipitation 0.00 in 0.16 in 2.26 in (1893)
Month to date precipitation 2.94 4.13  
Year to date precipitation 8.56 13.55  
Sea Level Pressure  
Sea Level Pressure 29.74 in    
Wind  
Wind Speed 16 mph (West)    
Max Wind Speed 32 mph    
Max Gust Speed 40 mph    
Visibility 10 miles    
Events      
T = Trace of Precipitation, MM = Missing Value Source: NWS Daily Summary

Daily Weather History Graph

Daily Weather History Graph

Search for Another Location

Airport or City:

Trip Planner

Search our weather history database for the weather conditions in past years. The results will help you decide how hot, cold, wet, or windy it might be!

Date:

Astronomy

Apr. 29, 2014 Rise Set
Actual Time 6:28 AM CDT 8:01 PM CDT
Civil Twilight 6:01 AM CDT 8:29 PM CDT
Nautical Twilight 5:28 AM CDT 9:01 PM CDT
Astronomical Twilight 4:54 AM CDT 9:35 PM CDT
Moon 6:46 AM CDT (4/29) 8:42 PM CDT (4/29)
Length of Visible Light 14h 27m
Length of Day
13h 33m
New Moon, 0% of the Moon is Illuminated
Apr 29
New Moon
May 6
First Quarter
May 14
Full
May 21
Last Quarter
May 28
New

Hourly Weather History & Observations

Time (CDT) Temp. Dew Point Humidity Pressure Visibility Wind Dir Wind Speed Gust Speed Precip Events Conditions
12:53 AM 55.0 °F 45.0 °F 69% 29.66 in 10.0 mi West 8.1 mph - N/A   Clear
1:53 AM 52.0 °F 46.0 °F 80% 29.66 in 10.0 mi WSW 6.9 mph - N/A   Clear
2:53 AM 51.1 °F 46.0 °F 83% 29.65 in 10.0 mi WSW 8.1 mph - N/A   Clear
3:53 AM 53.1 °F 45.0 °F 74% 29.64 in 10.0 mi West 9.2 mph - N/A   Clear
4:53 AM 54.0 °F 43.0 °F 66% 29.65 in 10.0 mi West 10.4 mph - N/A   Clear
5:53 AM 53.1 °F 42.1 °F 66% 29.66 in 10.0 mi West 10.4 mph - N/A   Scattered Clouds
6:53 AM 55.0 °F 39.9 °F 57% 29.68 in 10.0 mi WSW 11.5 mph - N/A   Clear
7:53 AM 55.4 °F 41.0 °F 58% 29.71 in 10.0 mi WSW 10.4 mph - N/A   Mostly Cloudy
8:53 AM 60.1 °F 41.0 °F 49% 29.71 in 10.0 mi WSW 11.5 mph - N/A   Mostly Cloudy
9:53 AM 62.1 °F 39.9 °F 44% 29.69 in 10.0 mi West 16.1 mph - N/A   Clear
10:53 AM 64.9 °F 37.0 °F 36% 29.68 in 10.0 mi West 31.1 mph 39.1 mph N/A   Clear
11:53 AM 64.9 °F 39.0 °F 39% 29.71 in 10.0 mi West 28.8 mph 38.0 mph N/A   Clear
12:53 PM 66.0 °F 37.9 °F 36% 29.72 in 10.0 mi West 28.8 mph 39.1 mph N/A   Partly Cloudy
1:53 PM 64.9 °F 39.0 °F 39% 29.73 in 10.0 mi West 21.9 mph 32.2 mph N/A   Mostly Cloudy
2:53 PM 68.0 °F 39.0 °F 35% 29.73 in 10.0 mi West 24.2 mph 34.5 mph N/A   Scattered Clouds
3:53 PM 66.0 °F 39.0 °F 37% 29.75 in 10.0 mi West 20.7 mph 28.8 mph N/A   Scattered Clouds
4:53 PM 63.0 °F 39.9 °F 43% 29.77 in 10.0 mi NW 19.6 mph 28.8 mph N/A   Overcast
5:53 PM 62.1 °F 39.0 °F 43% 29.79 in 10.0 mi WNW 20.7 mph 29.9 mph N/A   Partly Cloudy
6:53 PM 60.1 °F 39.9 °F 47% 29.81 in 10.0 mi WNW 19.6 mph 28.8 mph N/A   Clear
7:53 PM 57.0 °F 39.0 °F 51% 29.83 in 10.0 mi WNW 16.1 mph - N/A   Partly Cloudy
8:53 PM 55.9 °F 39.9 °F 55% 29.86 in 10.0 mi WNW 10.4 mph - N/A   Overcast
9:53 PM 55.4 °F 39.2 °F 54% 29.89 in 10.0 mi WNW 8.1 mph - N/A   Overcast
10:53 PM 55.0 °F 39.9 °F 57% 29.90 in 10.0 mi West 9.2 mph - N/A   Overcast
11:53 PM 54.0 °F 39.9 °F 59% 29.89 in 10.0 mi West 10.4 mph - N/A   Overcast